FW1458 Weather Reports


Display with metric or nautical units.
time (UTC)temp
F
wind
direction
speed
MPH
gust
MPH
rain 1hr
in
rain 24hr
in
rain mn
in
humidity
%
barometer
mb
20260905143023 88 173 1.0 5.0 0.00 0.00 0.00 63 1013.1
20260905141523 86 186 0.0 3.0 0.00 0.00 0.00 66 1013.1
20260905140016 84 170 2.0 5.0 0.00 0.00 0.00 68 1013.3
20260905134511 83 183 1.0 4.0 0.00 0.00 0.00 71 1013.1
20260905133010 80 147 2.0 5.0 0.00 0.00 0.00 74 1013.0
20260905131510 78 171 1.0 5.0 0.00 0.00 0.00 79 1012.9
20260905130011 76 165 0.0 2.0 0.00 0.00 0.00 82 1013.0
20260905124508 75 157 0.0 2.0 0.00 0.00 0.00 82 1012.8
20260905123005 75 145 0.0 2.0 0.00 0.00 0.00 82 1012.5
20260905121506 75 131 0.0 0.0 0.00 0.00 0.00 82 1012.5
20260905120002 75 131 0.0 1.0 0.00 0.00 0.00 82 1012.6
20260905114501 76 131 0.0 1.0 0.00 0.00 0.00 80 1012.5
20260905113100 76 131 0.0 1.0 0.00 0.00 0.00 80 1012.4
20260905111611 76 131 0.0 0.0 0.00 0.00 0.00 79 1012.3
20260905104554 77 131 0.0 0.0 0.00 0.00 0.00 78 1012.2
20260905103052 77 131 0.0 1.0 0.00 0.00 0.00 76 1012.1
20260905101552 78 131 0.0 1.0 0.00 0.00 0.00 76 1011.9
20260905100050 78 131 0.0 0.0 0.00 0.00 0.00 76 1011.8
20260905094600 79 131 0.0 1.0 0.00 0.00 0.00 76 1011.8
20260905093046 79 131 0.0 1.0 0.00 0.00 0.00 75 1011.8
20260905091548 79 131 0.0 1.0 0.00 0.00 0.00 73 1012.0
20260905090044 79 131 0.0 2.0 0.00 0.00 0.00 73 1012.0
20260905084547 79 133 0.0 2.0 0.00 0.00 0.00 73 1011.7
20260905083048 79 149 0.0 2.0 0.00 0.00 0.00 74 1011.8
20260905081553 79 149 0.0 2.0 0.00 0.00 0.00 74 1011.8
20260905080053 79 147 0.0 2.0 0.00 0.00 0.00 73 1011.6
20260905074542 79 147 0.0 0.0 0.00 0.00 0.00 73 1011.8
20260905073045 80 147 0.0 1.0 0.00 0.00 0.00 74 1011.8
20260905071541 80 147 0.0 0.0 0.00 0.00 0.00 72 1011.7
20260905070045 80 147 0.0 1.0 0.00 0.00 0.00 71 1011.5
20260905064538 80 147 0.0 0.0 0.00 0.00 0.00 72 1011.8
20260905063036 80 147 0.0 0.0 0.00 0.00 0.00 73 1011.8
20260905061549 81 147 0.0 0.0 0.00 0.00 0.00 70 1011.7
20260905060028 81 147 0.0 0.0 0.00 0.00 0.00 69 1011.8
20260905054526 82 147 0.0 0.0 0.00 0.00 0.00 67 1011.8
20260905053024 82 147 0.0 0.0 0.00 0.00 0.00 66 1011.5
20260905051529 83 147 0.0 0.0 0.00 0.00 0.00 66 1011.8
20260905050018 83 147 0.0 0.0 0.00 0.00 0.00 65 1011.6
20260905044523 84 147 0.0 1.0 0.00 0.00 0.00 64 1011.7
20260905043017 84 147 0.0 0.0 0.00 0.00 0.00 63 1011.8
20260905041517 85 147 0.0 0.0 0.00 0.00 0.00 62 1011.8
20260905040021 86 147 0.0 1.0 0.00 0.00 0.00 61 1011.9
20260905034520 86 147 0.0 0.0 0.00 0.00 0.00 59 1011.8
20260905033015 87 147 0.0 1.0 0.00 0.00 0.00 59 1011.5
20260905031515 87 144 0.0 1.0 0.00 0.00 0.00 58 1011.5
20260905030014 88 144 0.0 1.0 0.00 0.00 0.00 58 1011.3
20260905024513 88 144 0.0 1.0 0.00 0.00 0.00 56 1011.1
20260905023012 89 144 0.0 0.0 0.00 0.00 0.00 55 1011.0
20260905021513 89 144 0.0 1.0 0.00 0.00 0.00 55 1011.0
20260905020012 91 144 0.0 1.0 0.00 0.00 0.00 53 1010.7
20260905014512 92 144 0.0 1.0 0.00 0.00 0.00 51 1010.5
20260905013011 93 144 0.0 1.0 0.00 0.00 0.00 50 1010.4
20260905011513 93 144 0.0 1.0 0.00 0.00 0.00 47 1010.1
20260905010017 94 152 0.0 2.0 0.00 0.00 0.00 46 1010.0
20260905004510 95 155 0.0 3.0 0.00 0.00 0.00 45 1009.9
20260905003017 96 178 2.0 6.0 0.00 0.00 0.00 44 1009.9
20260905001509 97 156 1.0 7.0 0.00 0.00 0.00 43 1009.9
20260905000025 98 140 2.0 9.0 0.00 0.00 0.00 42 1010.0
20260904234508 99 172 5.0 10.0 0.00 0.00 0.00 40 1009.9
20260904233008 99 159 3.0 10.0 0.00 0.00 0.00 39 1009.9
20260904231507 100 169 3.0 11.0 0.00 0.00 0.00 39 1010.0
20260904230009 100 237 5.0 12.0 0.00 0.00 0.00 39 1009.8
20260904224505 100 184 6.0 11.0 0.00 0.00 0.00 41 1009.7
20260904223012 101 171 6.0 10.0 0.00 0.00 0.00 41 1009.9
20260904221507 101 184 2.0 10.0 0.00 0.00 0.00 42 1010.1
20260904220005 101 173 3.0 7.0 0.00 0.00 0.00 43 1010.2
20260904214604 101 129 5.0 11.0 0.00 0.00 0.00 44 1010.4
20260904213059 101 175 4.0 11.0 0.00 0.00 0.00 44 1010.4
20260904211612 101 233 4.0 11.0 0.00 0.00 0.00 45 1010.5
20260904210056 101 159 3.0 10.0 0.00 0.00 0.00 45 1010.7
20260904204554 99 38 3.0 11.0 0.00 0.00 0.00 46 1010.8
20260904203053 100 189 4.0 8.0 0.00 0.00 0.00 45 1010.9
20260904201549 99 185 3.0 9.0 0.00 0.00 0.00 47 1011.0
20260904200047 100 186 4.0 9.0 0.00 0.00 0.00 46 1011.3
20260904194547 100 162 4.0 12.0 0.00 0.00 0.00 46 1011.5
20260904193041 99 144 4.0 13.0 0.00 0.00 0.00 48 1011.6
20260904191545 99 181 5.0 9.0 0.00 0.00 0.00 47 1011.7
20260904190045 98 230 7.0 12.0 0.00 0.00 0.00 48 1012.0
20260904184536 98 221 4.0 12.0 0.00 0.00 0.00 49 1012.0
20260904183028 97 233 6.0 11.0 0.00 0.00 0.00 50 1012.2
20260904181527 98 233 3.0 12.0 0.00 0.00 0.00 49 1012.4
20260904180022 97 242 6.0 17.0 0.00 0.00 0.00 51 1012.6
20260904174521 96 181 5.0 11.0 0.00 0.00 0.00 51 1012.9
20260904173034 96 165 5.0 11.0 0.00 0.00 0.00 51 1013.0
20260904171516 95 207 5.0 10.0 0.00 0.00 0.00 52 1013.0
20260904170014 94 211 4.0 11.0 0.00 0.00 0.00 54 1013.3
20260904164513 93 267 5.0 11.0 0.00 0.00 0.00 55 1013.4
20260904163006 93 171 4.0 11.0 0.00 0.00 0.00 56 1013.3
20260904161632 92 165 6.0 11.0 0.00 0.00 0.00 58 1013.5
20260904160059 91 219 3.0 11.0 0.00 0.00 0.00 59 1013.6
20260904154557 91 123 4.0 11.0 0.00 0.00 0.00 58 1013.4
20260904153100 90 166 3.0 12.0 0.00 0.00 0.00 60 1013.4
20260904151551 89 165 2.0 9.0 0.00 0.00 0.00 62 1013.4
20260904150057 88 188 5.0 9.0 0.00 0.00 0.00 63 1013.4
20260904144559 87 263 3.0 8.0 0.00 0.00 0.00 65 1013.5